Tracking 18843 objects as of 20-November-2017
HD Live streaming from Space Station
objects crossing your sky now

FENGYUN 1C DEB

Track FENGYUN 1C DEB now!
10-day predictions


NORAD ID: 37708
Int'l Code: 1999-025ELZ
Perigee: 551.7 km
Apogee: 1,048.9 km
Inclination: 98.3 °
Period: 100.7 minutes
Semi major axis: 7171 km
RCS: 0.0068 m2 (small)
Launch date: May 10, 1999
Source: People's Republic of China (PRC)
Launch site: Taiyaun Space Center, China (TSC)

Note: This is SATELLITE DEBRIS
aabbcc
Your satellite tracking list
Your tracking list is empty




NASA's NSSDC Master Catalog

Two Line Element Set (TLE):
1 37708U 99025ELZ 17313.18099089  .00001124  00000-0  23933-3 0  9990
2 37708  98.2605  98.4839 0346684  14.1951 346.8679 14.29568120497449
Source of the keplerian elements: AFSPC